Location: Arques
(50.7337°N, 2.3024°E)
Time: 09:22:46
(UTC+00:00)

Daily predictions for brighter satellites

Satellite Brightness Start Highest point End
(mag) Time Altitude Azimuth Time Altitude Azimuth Time Altitude Azimuth
STARLINK-1072 3.7 18:45:39 10° WNW 18:49:39 71° SSW 18:53:38 10° ESE
Cosmos 1892 Rocket 3.6 18:45:38 10° N 18:50:08 73° E 18:54:36 10° SSE
Cosmos 1626 Rocket 4.5 18:47:40 10° N 18:51:35 30° ENE 18:55:27 10° SE
SL-16 R/B 3.0 18:47:17 10° SSE 18:52:03 29° ESE 18:56:51 10° NE
Cosmos 2333 Rocket 3.2 18:46:38 10° SW 18:52:11 53° NW 18:57:46 10° NNE
STARLINK-1103 3.8 18:49:21 10° WNW 18:53:29 68° N 18:57:38 10° E
STARLINK-1096 3.8 18:50:07 10° WNW 18:54:06 68° SSW 18:58:04 10° ESE
Cosmos 1626 2.7 18:51:09 10° N 18:54:39 38° ENE 18:58:07 10° SE
STARLINK-1234 3.3 18:52:11 10° SW 18:55:01 40° SSE 18:57:51 10° ENE
USA 186 2.3 18:52:08 10° SE 18:55:25 44° ENE 18:58:40 10° N
CSL-04 Rocket 4.5 18:50:49 10° S 18:56:02 55° W 19:01:15 10° NNW
Cosmos 1953 4.3 18:55:01 10° E 18:56:19 11° E 18:57:36 10° ENE
ARGOS Delta rocket 4.1 18:51:26 10° SSE 18:56:31 70° ENE 19:01:54 10° N
NOSS 2-1 (E) 3.0 18:54:38 10° SW 18:58:01 88° SE 19:01:55 10° NE
Okean 1-7 Rocket 3.5 18:53:37 10° N 18:58:03 75° E 19:02:26 10° SSE
STARLINK-1101 3.8 18:54:22 10° WNW 18:58:30 69° N 19:02:38 10° E
STARLINK-1079 3.8 18:54:35 10° WNW 18:58:34 64° SSW 19:02:32 10° SE
STARLINK-1236 4.4 18:57:38 10° SSW 19:01:12 31° SE 19:04:47 10° E
ATLAS 2AS CENTAUR R/B 4.0 18:55:38 10° NW 19:02:46 35° NNE 19:09:30 10° E
STARLINK-1116 3.9 18:59:04 10° WNW 19:03:02 61° SSW 19:06:59 10° SE
STARLINK-1102 3.8 18:59:20 10° WNW 19:03:30 71° NNE 19:07:32 11° E
SJ-11-01 4.4 19:01:39 10° SSE 19:06:21 85° WSW 19:11:07 10° NNW
H-2A R/B 2.1 19:02:05 10° SSE 19:07:23 75° ENE 19:12:34 10° NNW
Aureole 2 Rocket 4.2 19:05:54 10° N 19:08:23 18° NE 19:10:31 11° E
STARLINK-1111 3.7 19:04:19 10° WNW 19:08:28 73° NNE 19:12:19 12° E
STARLINK-1269 4.2 19:06:52 10° SSW 19:10:33 35° SE 19:14:15 10° ENE
STARLINK-1094 4.0 19:08:03 10° WNW 19:11:59 55° SSW 19:15:46 11° SE
Cosmos 1745 Rocket 4.3 19:05:45 10° NNW 19:12:05 77° W 19:18:18 10° S
ERBS 2.5 19:09:05 10° WSW 19:12:28 70° NNW 19:15:51 10° NE
Cosmos 1544 Rocket 3.7 19:09:10 10° S 19:13:25 51° E 19:17:44 10° NNE
STARLINK-1073 3.7 19:09:18 10° WNW 19:13:27 75° NNE 19:17:06 13° E
Cosmos 2297 3.7 19:08:17 10° NNW 19:14:00 83° ENE 19:19:42 10° SSE
CZ-2C R/B 4.5 19:10:38 10° NNE 19:14:56 32° E 19:19:09 10° SSE
USA 234 3.7 19:09:04 10° ENE 19:15:08 39° SE 19:21:10 10° SSW
STARLINK-1200 4.2 19:11:29 10° SSW 19:15:14 37° SE 19:18:57 10° ENE
NOSS 0 Rocket 4.2 19:09:49 10° SW 19:16:02 74° NW 19:22:15 10° NNE
STARLINK-1117 4.1 19:12:35 10° WNW 19:16:30 52° SSW 19:20:06 12° SE
Meteor 2-5 Rocket 4.3 19:11:52 10° NNW 19:17:29 62° W 19:22:58 10° S
STARLINK-1121 3.7 19:14:18 10° WNW 19:18:27 77° NNE 19:21:53 15° E
ADEOS Rocket 3.9 19:12:58 10° N 19:19:50 61° WNW 19:25:58 10° SW
STARLINK-1192 4.1 19:16:04 10° SW 19:19:51 40° SE 19:23:25 11° ENE
STARLINK-1078 4.2 19:17:05 10° WNW 19:20:59 49° SSW 19:24:26 13° SE
Cosmos 2237 Rocket 2.4 19:16:24 10° SW 19:22:01 77° WNW 19:27:42 10° NNE
Cosmos 1805 3.8 19:18:09 10° SSW 19:22:02 63° WNW 19:25:56 10° N
STARLINK-1106 3.6 19:19:15 10° WNW 19:23:25 79° NNE 19:26:39 16° ESE
Cosmos 1302 Rocket 4.0 19:18:31 10° NNW 19:23:49 77° ENE 19:29:06 10° SSE
STARLINK-1244 4.0 19:20:48 10° SW 19:24:37 42° SSE 19:28:01 13° ENE
STARLINK-1201 3.1 19:21:44 10° SW 19:24:55 53° SSE 19:27:31 15° ENE
STARLINK-1108 4.3 19:21:37 10° WNW 19:25:29 46° SSW 19:28:47 13° SE
Cosmos 2278 Rocket 4.2 19:21:02 10° NW 19:25:53 29° WSW 19:30:42 10° SSW
CZ-2C R/B 3.4 19:22:27 10° NE 19:26:53 28° E 19:31:16 10° SSE
STARLINK-1112 3.6 19:24:15 10° WNW 19:28:25 82° NNE 19:31:27 18° ESE
STARLINK-1138 3.9 19:25:26 10° SW 19:29:18 45° SSE 19:32:32 14° ENE
Cosmos 1269 Rocket 4.0 19:24:10 10° S 19:29:24 66° ESE 19:34:41 10° NNE
STARLINK-1071 4.4 19:26:09 10° WNW 19:29:59 44° SSW 19:33:08 14° SE
STARLINK-1209 2.6 19:27:19 10° WSW 19:30:13 71° SSE 19:32:14 18° ENE
STARLINK-1124 4.4 19:27:03 10° WNW 19:31:00 44° SSW 19:34:14 14° SE
STARLINK-1228 2.5 19:28:19 10° WSW 19:31:11 72° SSE 19:33:09 18° ENE
SeaSat 1 4.2 19:28:13 10° NNE 19:32:41 35° NW 19:37:08 10° WSW
Meteor 1-24 Rocket 4.2 19:27:21 10° NNW 19:32:51 61° W 19:38:08 10° S
STARLINK-1128 3.6 19:29:15 10° WNW 19:33:25 85° NNE 19:36:15 20° ESE
STARLINK-1143 3.8 19:30:09 10° SW 19:34:04 48° SSE 19:37:08 15° ENE
STARLINK-1110 4.5 19:30:41 10° WNW 19:34:30 41° SSW 19:37:29 15° SSE
SL-8 R/B 3.7 19:29:52 10° W 19:34:37 68° S 19:38:02 19° E
ARGOS 3.3 19:30:06 10° SSE 19:35:31 78° WSW 19:40:57 10° NNW
SL-24 R/B 4.4 19:32:19 10° NNE 19:36:54 45° E 19:40:53 10° S
STARLINK-1113 3.6 19:34:14 10° WNW 19:38:24 87° NNE 19:41:02 22° ESE
Cosmos 1470 2.7 19:38:26 10° S 19:42:15 62° E 19:46:07 10° NNE
STARLINK-1119 3.6 19:39:12 10° WNW 19:43:22 89° SSW 19:45:48 24° ESE
STARLINK-1241 3.6 19:40:32 10° SW 19:44:27 54° SSE 19:47:06 19° E
STARLINK-1233 2.8 19:41:31 10° WSW 19:44:38 72° SSE 19:46:21 24° ENE
STARLINK-1212 2.8 19:41:59 10° WSW 19:45:05 72° SSE 19:46:46 25° ENE
STARLINK-1105 2.8 19:42:25 10° WSW 19:45:33 73° SSE 19:47:13 25° ENE
STARLINK-1206 2.7 19:42:55 10° WSW 19:46:01 73° SSE 19:47:38 26° ENE
STARLINK-1247 2.7 19:43:21 10° WSW 19:46:28 74° SSE 19:48:03 26° ENE
Cosmos 2315 Rocket 4.0 19:40:16 10° S 19:46:34 79° E 19:52:58 10° NNE
SL-08 RB Rocket 3.8 19:42:08 10° S 19:46:38 80° WSW 19:51:15 10° NNW
ISS -3.8 19:43:15 10° WNW 19:46:38 89° N 19:48:11 30° ESE
STARLINK-1227 2.8 19:43:45 10° WSW 19:46:53 74° SSE 19:48:30 26° ENE
ATLAS CENTAUR R/B 4.1 19:44:30 10° NW 19:47:01 15° NNW 19:49:26 10° NNE
STARLINK-1218 2.7 19:44:15 10° WSW 19:47:21 74° SSE 19:48:55 27° ENE
SJ-6B 3.4 19:43:44 10° S 19:47:46 62° W 19:51:53 10° NNW
STARLINK-1226 2.7 19:44:42 10° WSW 19:47:49 75° SSE 19:49:23 27° ENE
STARLINK-1254 2.7 19:45:06 10° WSW 19:48:14 75° SSE 19:49:48 27° ENE
MetOp-A 4.1 19:42:55 10° SSE 19:48:16 81° ENE 19:53:40 10° NNW
STARLINK-1114 3.6 19:44:12 10° WNW 19:48:22 86° SSW 19:50:36 26° ESE
Resurs 1-3 3.5 19:44:43 13° SSE 19:48:32 71° ENE 19:52:55 10° N
STARLINK-1215 2.7 19:45:36 10° WSW 19:48:43 76° SSE 19:50:14 27° ENE
STARLINK-1239 3.6 19:45:05 10° SW 19:49:01 57° SSE 19:51:31 21° E
STARLINK-1231 2.7 19:46:02 10° WSW 19:49:10 76° SSE 19:50:39 28° ENE
STARLINK-1232 2.7 19:46:57 10° WSW 19:50:04 77° SSE 19:51:31 28° ENE
Cosmos 1758 3.3 19:46:05 10° S 19:50:09 70° E 19:54:16 10° NNE
STARLINK-1217 2.7 19:47:24 10° WSW 19:50:31 78° SSE 19:51:58 29° ENE
ERS-1 Rocket 4.5 19:48:48 17° E 19:50:34 20° ENE 19:54:12 10° N
STARLINK-1208 2.7 19:47:49 10° WSW 19:50:57 78° SSE 19:52:25 29° ENE
STARLINK-1229 2.7 19:48:17 10° WSW 19:51:24 78° SSE 19:52:48 30° ENE
IRIDIUM 104 4.3 19:46:21 10° N 19:51:34 64° E 19:56:26 12° SSE
BREEZE-M DEB (TANK) 3.7 19:44:09 10° W 19:51:35 75° S 19:53:10 29° ESE
STARLINK-1271 2.7 19:48:45 10° WSW 19:51:53 79° SSE 19:53:16 30° ENE
STARLINK-1270 2.7 19:49:13 10° WSW 19:52:19 79° SSE 19:53:42 30° ENE
STARLINK-1154 2.7 19:49:39 10° WSW 19:52:46 80° SSE 19:54:07 31° ENE
STARLINK-1130 (DARKSAT) 3.6 19:49:10 10° WNW 19:53:19 83° SSW 19:55:22 29° ESE
STARLINK-1240 3.5 19:49:39 10° SW 19:53:37 61° SSE 19:55:56 23° E
STARLINK-1197 2.7 19:50:33 10° WSW 19:53:40 80° SSE 19:54:59 31° ENE
STARLINK-1189 2.7 19:51:00 10° WSW 19:54:07 81° SSE 19:55:26 32° ENE
CZ-2C R/B 3.8 19:49:21 10° S 19:54:16 51° W 19:59:01 10° NNW
Cosmos 2369 Rocket 2.3 19:48:42 10° NNW 19:54:23 60° NE 19:57:50 24° SE
STARLINK-1187 2.8 19:51:50 10° WSW 19:54:58 87° SSE 19:56:20 31° ENE
STARLINK-1188 2.7 19:51:53 10° WSW 19:55:01 82° SSE 19:56:17 33° ENE
STARLINK-1198 2.7 19:52:08 10° WSW 19:55:15 82° SSE 19:56:31 33° ENE
STARLINK-1235 2.8 19:52:31 10° WSW 19:55:40 87° NNW 19:57:05 30° ENE
Resurs 01 Rocket 1.6 19:53:05 21° SE 19:55:54 61° ENE 20:00:15 10° N
SPOT 5 4.4 19:56:05 16° ENE 19:56:53 16° ENE 19:59:35 10° NNE
STARLINK-1199 2.7 19:53:49 10° WSW 19:56:58 84° SSE 19:58:12 34° ENE
STARLINK-67 2.6 19:54:49 10° W 19:57:24 66° NNW 19:58:04 42° NE
STARLINK-1191 2.7 19:54:18 10° WSW 19:57:26 84° SSE 19:58:39 34° ENE
STARLINK-1210 2.7 19:54:43 10° WSW 19:57:52 84° SSE 19:59:04 35° ENE
STARLINK-1216 3.5 19:54:16 10° SW 19:58:14 64° SSE 20:00:23 26° E
STARLINK-1084 3.6 19:54:09 10° WNW 19:58:18 79° SSW 20:00:09 32° ESE
STARLINK-1221 2.8 19:55:12 10° WSW 19:58:20 85° SSE 19:59:32 35° ENE
STARLINK-1219 2.7 19:55:38 10° WSW 19:58:47 85° SSE 19:59:57 35° ENE
STARLINK-1222 2.7 19:56:05 10° WSW 19:59:13 86° SSE 20:00:23 36° ENE
STARLINK-1211 2.7 19:56:33 10° WSW 19:59:40 86° SSE 20:00:48 36° ENE
STARLINK-1214 2.7 19:57:00 10° WSW 20:00:08 87° SSE 20:01:15 37° ENE
STARLINK-1245 2.7 19:57:29 10° WSW 20:00:37 87° SSE 20:01:40 38° ENE
IRIDIUM 114 4.2 19:55:30 10° N 20:00:45 75° E 20:05:35 12° S
STARLINK-1238 2.7 19:57:54 10° WSW 20:01:03 87° SSE 20:02:07 38° ENE
STARLINK-1205 2.7 19:58:51 10° WSW 20:01:58 88° SSE 20:02:58 40° ENE
STARLINK-1204 2.7 19:59:16 10° WSW 20:02:24 88° SE 20:03:23 40° ENE
Meteor 2-15 Rocket 4.3 19:56:32 10° S 20:02:35 75° E 20:08:40 10° NNE
STARLINK-1237 3.4 19:58:54 10° WSW 20:02:54 68° SSE 20:04:52 28° E
STARLINK-1098 3.6 19:59:07 10° WNW 20:03:16 75° SSW 20:04:55 35° SE
SPOT 3 Rocket 3.9 20:01:18 10° S 20:06:30 68° WSW 20:11:44 10° NNW
Cosmos 1726 2.6 20:06:29 38° ESE 20:06:44 39° E 20:10:15 10° NNE
Meteor 1-21 Rocket 4.1 20:01:29 10° NNW 20:07:07 85° ENE 20:11:31 17° SSE
STARLINK-1202 3.4 20:03:30 10° WSW 20:07:30 71° SSE 20:09:19 31° ENE
STARLINK-1123 3.6 20:04:07 10° WNW 20:08:16 72° SSW 20:09:44 38° SE
Nadezhda 1 Rocket 4.5 20:06:17 23° SE 20:09:46 40° E 20:15:39 10° NNE
IRIDIUM 103 4.3 20:04:40 10° N 20:09:56 88° E 20:14:45 12° S
Cosmos 2228 3.7 20:11:03 32° E 20:11:03 32° E 20:14:51 10° NNE
CZ-4C R/B 4.2 20:06:43 10° WNW 20:11:44 28° N 20:17:35 10° NE
MOS 1 Rocket 3.5 20:06:54 10° NNE 20:12:04 66° E 20:17:25 10° S
STARLINK-1246 3.4 20:08:35 10° WSW 20:12:38 75° SSE 20:14:18 34° ENE
SAR-Lupe-2 4.3 20:09:40 10° NNE 20:12:22 34° ENE 20:12:22 34° ENE
STARLINK-1097 3.7 20:09:05 10° WNW 20:13:13 68° SSW 20:14:29 41° SE
Cosmos 292 Rocket 3.7 20:11:57 10° NNW 20:16:46 88° WSW 20:19:07 31° SSE
STARLINK-1099 3.7 20:14:05 10° WNW 20:18:12 64° SSW 20:19:17 44° SE
Cosmos 1943 3.8 20:19:28 32° ESE 20:19:28 32° ESE 20:24:26 10° NE
Cosmos 1943 Rocket 2.2 20:14:08 10° NNW 20:19:40 76° WSW 20:22:52 26° SSE
STARLINK-1224 3.4 20:17:25 10° WSW 20:21:28 82° SSE 20:22:45 42° ENE
NOSS 3-4 (A) 4.2 20:15:31 10° NW 20:22:04 50° NE 20:25:57 27° E
NOSS 3-4 (C) 4.2 20:15:37 10° NW 20:22:10 50° NNE 20:26:03 27° E
Cosmos 2074 Rocket 3.9 20:15:55 10° N 20:22:14 86° E 20:26:45 20° S
Cosmos 2058 Rocket 4.5 20:24:10 24° ENE 20:24:10 24° ENE 20:26:51 10° NNE
STARLINK-1104 3.8 20:19:05 10° WNW 20:23:10 61° SSW 20:24:04 47° SSE
STARLINK-1225 3.4 20:22:08 10° WSW 20:26:10 85° SSE 20:27:17 47° ENE
Cosmos 1328 3.9 20:22:28 10° N 20:26:25 55° ENE 20:26:45 53° E
STARLINK-1203 3.4 20:23:49 10° WSW 20:27:46 90° SSE 20:28:44 50° ENE
STARLINK-1144 3.8 20:24:02 10° WNW 20:28:07 57° SSW 20:28:50 49° SSE
Cosmos 1437 2.8 20:25:52 10° N 20:28:32 64° N 20:28:32 64° N
STARLINK-1234 3.2 20:27:08 10° W 20:29:58 61° NNW 20:29:58 61° NNW
STARLINK-1230 3.4 20:26:46 10° WSW 20:30:49 88° SSE 20:31:44 53° ENE
Cosmos 1953 2.4 20:29:29 21° SSW 20:32:05 77° W 20:36:05 10° N
Meteor 2-10 4.0 20:28:33 16° S 20:32:48 75° E 20:38:21 10° NNE
STARLINK-1103 3.9 20:29:01 10° WNW 20:33:04 54° SSW 20:33:37 50° S
SPOT 1/Viking Rocket 3.8 20:32:06 41° ESE 20:33:24 51° ENE 20:38:27 10° N
NOSS 3-3 (A) 4.1 20:27:54 10° S 20:33:27 45° ESE 20:39:41 10° NE
NOSS 3-3 (C) 4.1 20:28:02 10° S 20:33:33 44° ESE 20:39:46 10° NE
Cosmos 2084 Rocket 3.9 20:29:43 10° NW 20:34:08 58° SW 20:35:19 42° S
Spot 2 Rocket 3.4 20:33:07 40° SSE 20:34:57 76° ENE 20:40:06 10° NNW
STARLINK-1243 3.4 20:31:28 10° WSW 20:35:31 89° NNW 20:36:16 58° ENE
SL-16 R/B 2.8 20:30:17 10° SW 20:35:52 58° NW 20:41:28 10° NNE
Cosmos 1610 Rocket 4.4 20:30:00 10° N 20:36:17 74° E 20:39:03 35° SSE
STARLINK-1101 3.9 20:34:02 10° WNW 20:38:03 51° SSW 20:38:25 49° S
STARLINK-1236 3.5 20:36:08 10° WSW 20:40:12 86° NNW 20:40:45 65° ENE
IGS 5A 3.5 20:42:14 60° ENE 20:42:19 60° ENE 20:46:26 10° N
Aureole 2 Rocket 3.0 20:39:02 10° NW 20:42:27 49° WSW 20:42:44 47° SW
Aureole 3 4.4 20:38:46 10° SSW 20:42:46 55° WNW 20:47:56 10° N
STARLINK-1102 4.0 20:39:01 10° WNW 20:43:01 48° SSW 20:43:11 47° SSW
DMSP B5D2-2 4.5 20:40:04 10° N 20:45:14 63° WNW 20:50:22 10° SSW
STARLINK-1111 4.2 20:44:00 10° WNW 20:47:58 45° SSW 20:47:58 45° SSW
ERBS 4.0 20:46:12 10° WNW 20:49:12 29° N 20:49:56 26° NNE
Terra 2.7 20:49:37 34° ENE 20:49:37 34° ENE 20:53:51 10° N
STARLINK-1269 3.5 20:45:35 10° WSW 20:49:38 80° NNW 20:49:49 77° NNE
CARTOSAT-1 4.1 20:50:52 44° NE 20:50:52 44° NE 20:54:40 10° N
Cosmos 2341 Rocket 4.2 20:46:08 10° N 20:52:24 56° ENE 20:53:51 46° ESE
STARLINK-1073 4.3 20:49:00 10° WNW 20:52:45 42° SW 20:52:45 42° SW
Cosmos 1703 3.3 20:49:06 10° NNW 20:53:03 76° W 20:53:09 75° WSW
STARLINK-1200 3.6 20:50:17 10° WSW 20:54:20 78° NNW 20:54:20 78° NNW
Cosmos 1726 Rocket 3.4 20:55:09 74° ENE 20:55:09 74° ENE 20:59:25 10° NNE
ATLAS 2AS CENTAUR R/B 2.9 20:47:18 10° NW 20:55:04 70° NE 20:57:41 43° ESE
Cosmos 1825 Rocket 4.2 20:52:13 10° NNW 20:56:34 53° W 20:57:49 39° SW
Cosmos 1603 3.5 20:53:25 20° SSW 20:57:24 73° ESE 21:03:01 10° NNE
Meteor 1-16 Rocket 4.1 20:54:16 25° SSW 20:57:29 82° WNW 21:02:59 10° N
USA 234 3.2 20:52:00 10° ENE 20:58:35 85° NNW 21:05:09 10° WSW
STARLINK-1192 3.7 20:54:57 10° W 20:58:49 74° NW 20:58:49 74° NW
STARLINK-1244 3.8 20:59:45 10° W 21:03:26 67° WNW 21:03:26 67° WNW
CZ-2C R/B 3.4 21:02:25 10° N 21:07:26 49° WNW 21:12:23 10° SW
STARLINK-1138 4.0 21:04:28 10° W 21:07:58 60° WNW 21:07:58 60° WNW
Aureole 1 Rocket 4.4 21:07:15 47° SE 21:08:42 54° ESE 21:15:06 10° NNE
COSMOS 2455 3.4 21:04:11 10° NNW 21:10:01 46° NE 21:11:09 42° ENE
Meteor 1-11 4.3 21:04:48 10° NNW 21:10:38 77° W 21:12:05 52° S
Cosmos 1953 Rocket 4.1 21:07:52 10° NNW 21:12:12 54° W 21:12:43 51° WSW
Iridium 4 Rocket 4.3 21:08:57 10° N 21:11:53 32° NE 21:11:53 32° NE
STARLINK-1143 4.2 21:09:16 10° W 21:12:34 54° WNW 21:12:34 54° WNW
Cosmos 1295 Rocket 4.5 21:08:45 10° NNW 21:15:01 82° W 21:16:48 50° S
Cosmos 1461 3.9 21:11:11 10° NNW 21:15:09 41° NNE 21:15:09 41° NNE
SL-8 R/B 4.4 21:12:18 10° W 21:16:00 42° SW 21:16:00 42° SW
Cosmos 2251 Rocket 4.1 21:13:07 10° SW 21:18:24 58° WNW 21:23:45 10° NNE
Cosmos 2218 Rocket 4.0 21:15:02 10° N 21:21:07 57° ENE 21:21:25 56° E
Cosmos 1606 Rocket 4.3 21:20:20 43° WSW 21:21:11 50° WNW 21:25:33 10° N
Cosmos 1656 Rocket 3.7 21:16:17 10° NNW 21:21:56 68° WSW 21:22:37 62° SSW
ISS -1.1 21:20:14 10° W 21:21:09 16° W 21:21:09 16° W
ATLAS CENTAUR R/B 4.1 21:25:49 10° NNW 21:27:35 12° N 21:29:15 10° NNE
ERS-1 Rocket 3.0 21:28:47 74° WSW 21:28:50 74° WSW 21:33:54 10° NNW
Resurs 01 Rocket 4.0 21:30:38 13° WSW 21:32:47 18° W 21:35:49 10° NW
Cosmos 2181 Rocket 4.0 21:33:10 63° E 21:33:10 63° E 21:39:10 10° NNE
SPOT 5 3.1 21:35:19 58° NW 21:35:19 58° NW 21:38:53 10° NNW
In-Cosmos 22 Rocket 4.4 21:29:40 10° N 21:35:12 62° ENE 21:35:12 62° ENE
Cosmos 2369 Rocket 3.7 21:33:18 10° NW 21:38:02 28° WSW 21:39:39 24° SW
Cosmos 921 Rocket 4.2 21:43:27 10° NNW 21:46:08 38° NNW 21:46:08 38° NNW
SL-8 Rocket 4.0 21:49:57 10° NNW 21:56:14 74° W 21:56:35 72° SW
Cosmos 2058 Rocket 4.4 22:01:24 38° NW 22:01:24 38° NW 22:05:12 10° N
CZ-4C R/B 4.1 21:56:28 10° NW 22:02:12 32° NNE 22:06:33 19° ENE
Cosmos 864 Rocket 4.4 21:56:47 10° N 22:02:57 83° WNW 22:02:57 83° WNW
Cosmos 1943 3.8 22:01:06 34° WSW 22:03:17 53° NW 22:08:52 10° NNE
Cosmos 2366 rocket 3.9 21:57:17 10° NNW 22:03:18 80° WNW 22:03:18 80° WNW
Cosmos 1763 Rocket 4.5 22:03:16 10° NNW 22:07:11 40° NNE 22:07:11 40° NNE
Mayak 1.1 22:05:45 10° NNE 22:06:55 18° NNE 22:06:55 18° NNE
NOSS 3-4 (A) 4.0 22:06:28 10° NW 22:13:16 59° SW 22:13:24 59° SW
NOSS 3-4 (C) 4.0 22:06:33 10° NW 22:13:22 59° SW 22:13:29 59° SW
Cosmos 1697 Rocket 3.9 22:21:20 10° NNW 22:26:03 35° NE 22:26:03 35° NE
Terra 3.4 22:28:29 31° WNW 22:28:29 31° WNW 22:31:40 10° NNW
USA 234 3.8 22:35:01 10° ENE 22:41:21 54° N 22:47:40 10° W
ATLAS 2AS CENTAUR R/B 3.7 22:38:51 10° NW 22:45:08 37° WSW 22:45:08 37° WSW
Cosmos 1821 Rocket 4.3 22:41:35 10° N 22:46:52 65° NNW 22:46:52 65° NNW
Cosmos 1980 Rocket 3.6 22:46:27 10° NNW 22:50:54 31° NE 22:50:54 31° NE
COSMOS 2455 4.0 22:50:17 10° NW 22:54:18 36° WNW 22:54:18 36° WNW
ATLAS CENTAUR R/B 4.2 23:04:28 10° NNW 23:05:26 15° NNW 23:05:26 15° NNW
Cosmos 1934 Rocket 4.5 23:03:02 10° N 23:08:00 57° N 23:08:00 57° N
ATLAS 5 CENTAUR R/B 4.1 23:39:11 19° NNE 23:39:11 19° NNE 23:40:48 10° NE
Cosmos 1833 Rocket 4.3 23:45:09 27° NE 23:45:09 27° NE 23:47:44 10° NE
Mayak 1.6 23:42:23 10° NNW 23:43:29 14° NNW 23:43:29 14° NNW
CZ-4C R/B 3.0 23:45:05 10° NW 23:51:42 67° NNE 23:51:42 67° NNE
